This is the latest recevied weather packets stored in our database for station/object SP2WPY-13. If no packets are shown the sender has not sent any weather packets the latest 10 day(s).
| Time | Temp. | Humidity | Pressure | Rain* | Wind** | Luminosity | Snow |
|---|---|---|---|---|---|---|---|
| 1787753433 | 18.89° C | 71% | 1027.9 hPa | - | - | - | - |
| 1787753114 | 18.33° C | 72% | 1028 hPa | - | - | - | - |
| 1787752841 | 19.44° C | 69% | 1027.9 hPa | - | - | - | - |
| 1787752521 | 20° C | 63% | 1027.8 hPa | - | - | - | - |
| 1787752245 | 20° C | 65% | 1027.9 hPa | - | - | - | - |
| 1787751926 | 20° C | 64% | 1027.9 hPa | - | - | - | - |
| 1787751605 | 20° C | 65% | 1027.9 hPa | - | - | - | - |
| 1787751332 | 20° C | 64% | 1028 hPa | - | - | - | - |
| 1787751013 | 19.44° C | 68% | 1028 hPa | - | - | - | - |
| 1787750740 | 19.44° C | 65% | 1028 hPa | - | - | - | - |
| 1787750419 | 19.44° C | 70% | 1027.9 hPa | - | - | - | - |
| 1787750145 | 19.44° C | 68% | 1027.9 hPa | - | - | - | - |
| 1787749826 | 20° C | 65% | 1027.9 hPa | - | - | - | - |
| 1787749506 | 20° C | 66% | 1028 hPa | - | - | - | - |
| 1787749232 | 21.11° C | 62% | 1028 hPa | - | - | - | - |
| 1787748912 | 20.56° C | 63% | 1028 hPa | - | - | - | - |
| 1787748638 | 20° C | 67% | 1028 hPa | - | - | - | - |
| 1787748318 | 19.44° C | 64% | 1028 hPa | - | - | - | - |
| 1787748044 | 20° C | 64% | 1028 hPa | - | - | - | - |
| 1787747725 | 19.44° C | 68% | 1028 hPa | - | - | - | - |
| 1787747405 | 20° C | 70% | 1028 hPa | - | - | - | - |
| 1787747131 | 19.44° C | 69% | 1028 hPa | - | - | - | - |
| 1787746811 | 19.44° C | 72% | 1028 hPa | - | - | - | - |
| 1787746537 | 18.89° C | 70% | 1028.1 hPa | - | - | - | - |
| 1787746217 | 19.44° C | 68% | 1028.1 hPa | - | - | - | - |
* Rain since midnight (hover to see other rain measurements)
** Current wind speed in m/s (hover to see current wind gust speed)